TimePDT,TemperatureF,Dew PointF,Humidity,Sea Level PressureIn,VisibilityMPH,Wind Direction,Wind SpeedMPH,Gust SpeedMPH,PrecipitationIn,Events,Conditions,WindDirDegrees,DateUTC
12:53 AM,30.9,26.1,82,30.15,10.0,South,8.1,-,N/A,,Scattered Clouds,180,2013-04-09 07:53:00
1:53 AM,28.9,24.1,82,30.15,10.0,WNW,4.6,-,N/A,,Clear,300,2013-04-09 08:53:00
2:53 AM,32.0,25.0,75,30.14,10.0,West,6.9,-,N/A,,Clear,280,2013-04-09 09:53:00
3:53 AM,30.9,24.1,76,30.17,10.0,WNW,11.5,-,N/A,,Clear,300,2013-04-09 10:53:00
4:53 AM,28.9,23.0,78,30.18,10.0,West,5.8,-,N/A,,Clear,270,2013-04-09 11:53:00
5:53 AM,28.0,21.9,78,30.21,10.0,WSW,4.6,-,N/A,,Clear,250,2013-04-09 12:53:00
6:53 AM,28.9,23.0,78,30.25,10.0,West,5.8,-,N/A,,Clear,270,2013-04-09 13:53:00
7:53 AM,36.0,26.1,67,30.25,10.0,West,8.1,-,N/A,,Clear,280,2013-04-09 14:53:00
8:53 AM,42.1,26.1,53,30.24,10.0,NW,11.5,-,N/A,,Clear,310,2013-04-09 15:53:00
9:53 AM,45.0,25.0,46,30.25,10.0,NW,13.8,-,N/A,,Clear,320,2013-04-09 16:53:00
10:53 AM,48.9,24.1,38,30.25,10.0,NW,10.4,16.1,N/A,,Clear,310,2013-04-09 17:53:00
11:53 AM,52.0,23.0,32,30.22,10.0,NNW,11.5,-,N/A,,Clear,340,2013-04-09 18:53:00
12:53 PM,54.0,21.9,29,30.22,10.0,Calm,Calm,-,N/A,,Clear,0,2013-04-09 19:53:00
1:53 PM,55.0,18.0,23,30.22,10.0,NW,5.8,17.3,N/A,,Clear,310,2013-04-09 20:53:00
2:53 PM,57.9,21.9,25,30.18,10.0,WNW,13.8,18.4,N/A,,Clear,300,2013-04-09 21:53:00
3:53 PM,57.9,19.9,23,30.17,10.0,WNW,11.5,21.9,N/A,,Clear,290,2013-04-09 22:53:00
4:53 PM,57.9,26.1,30,30.18,10.0,West,15.0,20.7,N/A,,Clear,260,2013-04-09 23:53:00
5:53 PM,55.9,26.1,32,30.21,10.0,West,15.0,-,N/A,,Clear,280,2013-04-10 00:53:00
6:53 PM,51.1,21.9,32,30.23,10.0,WNW,12.7,23.0,N/A,,Clear,300,2013-04-10 01:53:00
7:53 PM,46.9,21.0,36,30.23,10.0,WNW,8.1,-,N/A,,Clear,300,2013-04-10 02:53:00
8:53 PM,41.0,24.1,51,30.26,10.0,NW,3.5,-,N/A,,Partly Cloudy,310,2013-04-10 03:53:00
9:53 PM,39.0,27.0,62,30.25,10.0,West,4.6,-,N/A,,Clear,280,2013-04-10 04:53:00
10:53 PM,36.0,26.1,67,30.26,10.0,SSE,8.1,-,N/A,,Clear,160,2013-04-10 05:53:00
11:53 PM,39.9,27.0,60,30.25,10.0,SW,8.1,-,N/A,,Clear,220,2013-04-10 06:53:00